Date,TemperatureHighF,TemperatureAvgF,TemperatureLowF,DewpointHighF,DewpointAvgF,DewpointLowF,HumidityHigh,HumidityAvg,HumidityLow,PressureMaxIn,PressureMinIn,WindSpeedMaxMPH,WindSpeedAvgMPH,GustSpeedMaxMPH,PrecipitationSumIn
2013-1-1,35,28,18,31,23,12,96,81,59,30.38,30.25,6,0,12,0.00
2013-1-2,25,14,3,15,2,-7,81,61,26,30.47,30.36,3,1,4,0.00
2013-1-3,34,24,4,22,12,-5,74,62,40,30.52,30.42,8,4,12,0.00
2013-1-4,34,26,21,22,15,12,75,64,49,30.56,30.50,9,6,14,0.00
2013-1-5,42,28,13,26,18,6,84,68,49,30.55,30.36,7,3,14,0.00
2013-1-6,36,31,25,30,23,16,83,72,64,30.58,30.25,11,6,19,0.00
2013-1-7,38,22,9,25,14,2,83,71,54,30.67,30.45,5,1,8,0.00
2013-1-8,48,34,20,30,24,14,85,69,50,30.51,30.42,5,2,9,0.00
2013-1-9,51,41,29,41,35,26,96,81,63,30.72,30.43,8,3,10,0.00
2013-1-10,43,37,27,39,32,23,94,82,62,30.73,30.31,9,4,13,0.00
2013-1-11,59,53,43,55,49,38,100,88,75,30.31,30.12,12,5,17,0.00
2013-1-12,64,55,51,62,52,46,100,90,74,30.24,29.97,9,4,13,0.00
2013-1-13,64,45,26,61,44,19,100,95,75,30.40,29.88,13,4,18,0.00
2013-1-14,26,22,19,19,15,13,80,74,65,30.65,30.40,0,0,0,0.00
2013-1-15,34,27,21,23,19,14,77,70,55,30.58,30.31,8,1,15,0.00
2013-1-16,34,33,30,24,20,17,76,60,50,30.31,30.19,8,3,11,0.00
2013-1-17,42,31,24,30,20,10,76,65,53,30.62,30.30,8,4,11,0.00
2013-1-18,41,29,18,22,15,9,78,57,33,30.72,30.42,10,4,16,0.00
2013-1-19,56,45,36,29,24,20,56,45,32,30.43,30.11,14,8,21,0.00
2013-1-20,44,36,0,35,23,0,72,57,36,30.47,30.14,5,3,11,0.05
2013-1-21,23,18,0,9,0,-12,62,45,27,30.47,30.32,10,4,19,0.00
2013-1-22,19,12,5,-8,-13,-16,46,32,21,30.58,30.46,6,4,14,0.00
2013-1-23,22,17,10,6,-4,-13,52,39,29,30.54,30.30,4,2,12,0.00
2013-1-24,25,19,12,8,-2,-11,64,40,21,30.78,30.35,6,3,17,0.00
2013-1-25,27,22,17,15,9,-2,78,59,40,30.62,30.25,7,2,12,0.00
2013-1-26,34,21,16,17,11,6,81,65,45,30.64,30.31,3,1,7,0.00
2013-1-27,36,27,18,34,17,8,94,67,52,30.63,30.32,4,2,9,0.00
2013-1-28,50,44,36,49,42,34,99,95,86,30.34,30.25,6,3,14,0.00
2013-1-29,64,60,49,57,55,49,99,84,78,30.22,29.73,7,4,18,0.00
2013-1-30,65,49,29,58,44,22,99,85,72,29.83,29.50,9,4,30,0.00
2013-1-31,32,24,12,22,14,-1,87,65,47,30.29,29.83,9,3,22,0.00
2013-2-1,18,11,4,2,-4,-47,60,51,41,30.60,30.29,6,3,16,0.19
2013-2-2,27,21,14,22,12,1,81,69,56,30.50,30.22,5,2,10,0.00
2013-2-3,24,20,13,17,11,5,78,67,54,30.32,30.18,6,2,11,0.09
2013-2-4,35,25,17,30,17,8,88,70,52,30.31,30.01,5,2,12,0.00
2013-2-5,35,33,25,30,25,20,82,73,66,30.24,30.06,5,2,9,0.00
2013-2-6,37,31,27,30,24,17,82,75,48,30.47,30.24,4,2,9,0.00
2013-2-7,57,40,30,41,29,24,86,67,38,30.42,30.01,4,1,8,0.00
2013-2-8,45,34,27,44,29,19,98,80,65,30.56,30.02,7,3,17,0.00
2013-2-9,45,32,19,24,18,14,85,59,31,30.64,30.40,4,1,8,0.00
2013-2-10,51,42,32,48,31,18,98,66,48,30.41,29.98,7,3,13,0.00
2013-2-11,51,36,0,49,32,-6,98,55,42,30.23,29.96,11,5,22,0.00
2013-2-12,48,38,16,28,24,-8,80,59,32,30.11,29.73,5,2,12,0.00
2013-2-13,44,34,29,28,25,22,87,71,47,29.73,29.59,4,2,8,0.00
2013-2-14,52,39,32,36,31,25,88,74,49,29.82,29.61,6,3,17,0.00
2013-2-15,39,32,21,29,23,12,80,71,53,29.97,29.79,6,2,14,0.00
2013-2-16,30,23,19,17,9,3,79,56,36,29.95,29.87,6,2,14,0.00
2013-2-17,35,22,10,12,5,-5,74,50,23,30.77,29.89,4,1,8,0.00
2013-2-18,60,41,24,41,24,5,88,50,35,29.97,29.47,9,4,21,0.00
2013-2-19,47,29,18,42,19,-30,93,66,10,29.92,29.44,10,6,25,0.00
2013-2-20,30,22,14,12,7,0,65,52,34,30.10,29.92,7,4,13,0.00
2013-2-21,33,23,18,23,13,7,81,66,49,30.13,29.81,7,3,16,0.00
2013-2-22,37,34,28,35,30,23,95,88,75,29.86,29.67,6,1,14,0.00
2013-2-23,41,33,26,28,22,17,79,64,46,29.81,29.72,5,2,11,0.00
2013-2-24,44,32,23,24,20,16,77,62,42,29.95,29.76,4,1,9,0.00
2013-2-25,48,36,26,25,21,16,70,55,37,29.97,29.67,7,3,15,0.00
2013-2-26,45,39,34,44,33,21,98,82,53,29.69,29.20,9,4,21,0.00
2013-2-27,41,35,32,40,32,28,96,88,76,29.52,29.31,7,4,23,0.00
2013-2-28,32,32,31,28,28,27,87,86,84,29.51,29.50,5,4,12,0.00
2013-3-1,34,31,29,30,24,20,93,76,69,29.86,29.75,6,3,11,0.00
2013-3-2,30,28,26,21,17,14,72,64,54,29.89,29.85,6,3,11,0.00
2013-3-3,33,28,20,21,16,12,75,62,48,29.90,29.85,6,2,11,0.00
2013-3-4,43,30,16,25,17,10,83,60,35,29.95,29.77,4,1,10,0.00
2013-3-5,36,34,28,33,29,23,96,81,60,29.79,29.44,4,2,11,0.00
2013-3-6,34,30,27,28,25,22,95,82,68,30.07,29.51,0,0,0,0.00
2013-3-7,44,34,29,30,25,21,89,72,51,30.19,30.05,3,1,7,0.00
2013-3-8,48,36,24,25,21,18,78,57,34,30.28,30.17,4,1,10,0.00
2013-3-9,56,43,30,35,28,21,74,57,36,30.18,29.81,5,2,11,0.00
2013-3-10,68,56,46,38,34,32,62,44,29,29.81,29.60,6,3,16,0.00
2013-3-11,59,48,35,52,42,29,96,80,43,29.68,29.42,8,5,18,0.00
2013-3-12,47,36,33,31,26,21,90,66,42,29.86,29.68,10,4,18,0.00
2013-3-13,33,29,25,27,21,14,86,73,58,30.03,29.83,6,4,21,0.00
2013-3-14,47,37,20,28,18,8,78,49,22,30.15,29.97,5,2,11,0.00
2013-3-15,36,31,28,31,28,26,92,89,77,29.98,29.79,3,1,7,0.00
2013-3-16,54,43,35,45,39,32,95,87,66,29.85,29.45,5,3,9,0.00
2013-3-17,38,35,32,30,25,24,85,66,61,29.96,29.79,6,4,17,0.00
2013-3-18,45,35,33,44,33,27,98,92,75,29.79,29.40,8,3,16,0.00
2013-3-19,43,34,26,36,15,10,93,46,25,29.92,29.62,8,3,18,0.00
2013-3-20,35,29,23,18,10,0,61,45,28,29.92,29.80,7,4,17,0.00
2013-3-21,37,28,18,12,6,2,62,40,26,29.83,29.77,5,2,13,0.00
2013-3-22,49,33,19,20,12,7,68,45,23,29.87,29.80,4,1,9,0.00
2013-3-23,52,36,30,22,20,15,66,53,25,29.88,29.82,3,1,7,0.00
2013-3-24,35,31,28,30,28,20,95,90,53,29.71,29.25,9,3,15,0.00
2013-3-25,37,31,28,31,27,23,94,86,73,29.78,29.27,6,4,15,0.00
2013-3-26,39,32,31,30,28,27,87,84,67,29.95,29.78,4,3,10,0.00
2013-3-27,42,35,28,29,23,17,81,62,44,30.13,30.05,4,2,7,0.00
2013-3-28,53,44,23,26,23,15,74,46,30,30.17,30.09,4,1,8,0.00
2013-3-29,62,42,26,35,27,21,87,59,26,30.13,30.02,4,1,8,0.00
2013-3-30,61,38,28,37,28,23,88,70,28,30.05,29.79,3,1,10,0.00
2013-3-31,60,45,42,44,36,32,86,72,40,29.75,29.60,4,0,7,0.00
2013-4-1,51,41,33,42,18,9,80,40,24,29.96,29.65,6,3,16,0.00
2013-4-2,49,36,24,20,13,6,63,41,21,30.09,29.95,5,2,13,0.00
2013-4-3,44,30,23,19,13,8,66,51,25,30.22,30.07,6,1,11,0.00
2013-4-4,62,46,32,22,18,10,60,34,19,30.17,29.81,4,0,5,0.00
2013-4-5,62,46,29,32,26,21,76,49,22,29.97,29.80,6,2,13,0.00
2013-4-6,69,53,37,38,29,22,61,42,24,30.00,29.69,6,3,14,0.00
2013-4-7,77,65,55,54,43,36,83,47,27,29.81,29.64,8,4,17,0.00
2013-4-8,74,62,55,56,54,51,95,75,54,29.81,29.69,8,3,21,0.00
2013-4-9,81,66,50,61,55,50,99,72,37,29.86,29.72,10,2,98,0.00
2013-4-10,84,72,62,66,62,59,93,73,51,29.77,29.60,10,4,22,0.00
2013-4-11,63,61,59,62,60,59,99,96,87,29.63,29.52,4,2,13,0.00
2013-4-12,51,44,39,51,35,31,99,71,61,29.75,29.42,7,4,17,0.00
2013-4-13,57,46,40,38,35,31,86,69,47,29.85,29.74,8,3,21,0.00
2013-4-14,73,56,37,46,41,33,88,61,32,29.86,29.67,4,2,10,0.00
2013-4-15,74,62,52,55,52,45,88,70,50,29.81,29.70,6,2,14,0.00
2013-4-16,73,62,55,65,58,54,99,85,66,29.97,29.74,6,3,13,0.00
2013-4-17,76,70,64,68,65,62,92,86,75,29.85,29.74,3,2,5,0.00
2013-4-18,81,72,62,66,60,58,93,69,52,29.69,29.40,9,4,21,0.00
2013-4-19,69,43,38,61,38,30,99,80,65,29.79,29.36,8,5,20,0.00
2013-4-20,51,41,33,35,29,24,90,64,36,30.21,29.79,6,3,14,0.00
2013-4-21,60,44,31,31,26,21,82,51,26,30.34,30.18,4,2,13,0.00
2013-4-22,74,55,37,41,32,26,69,45,19,30.18,29.93,3,1,9,0.00
2013-4-23,70,59,48,55,48,40,78,67,50,29.95,29.62,7,2,14,0.00
2013-4-24,65,46,35,58,42,32,99,87,64,30.03,29.60,47,3,100,0.00
2013-4-25,60,48,33,39,33,22,96,61,29,30.19,30.02,7,3,17,0.00
2013-4-26,67,49,32,42,34,31,96,61,29,30.26,30.15,3,1,6,0.00
2013-4-27,67,54,40,52,43,33,90,67,32,30.16,29.85,4,1,12,0.00
2013-4-28,67,58,54,60,56,52,99,93,73,29.85,29.65,4,1,9,0.00
2013-4-29,68,59,54,58,55,51,99,86,61,29.83,29.71,3,1,8,0.00
2013-4-30,82,65,50,58,54,49,99,72,43,29.88,29.79,2,1,4,0.00
2013-5-1,88,73,54,58,56,52,92,56,32,29.98,29.88,2,0,4,0.00
2013-5-2,80,70,59,57,55,52,79,60,42,30.03,29.90,3,1,24,0.00
2013-5-3,80,69,64,62,56,41,76,63,39,29.91,29.75,4,1,10,0.00
2013-5-4,68,65,60,48,42,41,64,44,40,29.81,29.78,4,2,9,0.00
2013-5-5,60,56,54,51,50,49,91,79,69,29.79,29.76,5,3,9,0.00
2013-5-6,67,62,55,58,56,49,98,81,69,29.81,29.72,6,3,15,0.00
2013-5-7,72,62,55,59,56,53,99,82,54,29.83,29.77,8,2,13,0.00
2013-5-8,76,59,51,60,56,51,99,90,49,29.84,29.78,4,1,9,0.00
2013-5-9,82,66,56,60,57,51,99,78,37,29.85,29.75,5,1,7,1.18
2013-5-10,68,60,53,64,59,52,99,96,84,29.73,29.64,5,2,10,0.00
2013-5-11,62,52,46,53,48,41,99,88,64,30.52,29.70,8,3,15,0.00
2013-5-12,58,47,38,41,34,24,99,67,31,29.92,29.84,6,2,14,0.00
2013-5-13,65,51,35,42,31,22,99,54,22,30.01,29.93,5,2,13,0.00
2013-5-14,83,66,45,61,48,37,74,54,39,29.95,29.64,6,2,16,0.00
2013-5-15,90,78,66,61,59,55,77,54,32,29.72,29.64,7,3,19,0.00
2013-5-16,82,78,66,65,64,59,94,61,56,29.82,29.67,4,2,8,0.00
2013-5-17,83,80,0,65,64,64,56,55,54,29.89,29.82,2,2,4,0.00
2013-5-20,89,84,74,69,67,65,79,57,46,29.78,29.70,5,3,13,0.00
2013-5-21,85,77,70,69,65,61,84,67,48,29.81,29.62,4,2,9,0.00
2013-5-22,78,72,65,67,63,59,98,75,56,29.65,29.57,5,3,11,0.00
2013-5-23,76,67,51,61,57,50,99,72,56,29.94,29.63,6,4,10,0.00
2013-5-24,101,57,47,51,42,34,99,65,10,30.16,29.94,6,3,100,0.00
2013-5-25,67,57,0,46,41,34,98,61,33,30.19,30.03,3,1,49,0.00
2013-5-26,70,60,54,50,45,39,76,60,38,30.12,30.07,3,1,4,0.00
2013-5-27,82,64,0,62,58,46,75,54,49,29.94,29.78,4,3,8,0.00
2013-5-28,82,82,82,65,64,64,56,54,53,29.77,29.76,8,6,15,0.00
2013-5-29,87,78,69,64,61,58,73,58,38,29.89,29.77,4,2,8,0.00
2013-5-30,89,79,70,70,66,64,93,67,45,29.94,29.83,5,2,14,0.00
2013-5-31,78,72,68,72,68,66,99,88,73,29.88,29.73,4,2,13,0.00
2013-6-1,81,72,64,71,67,63,99,85,63,29.76,29.62,8,2,19,0.00
2013-6-2,78,68,60,66,61,56,97,79,53,29.80,29.65,6,3,14,0.00
2013-6-3,70,60,51,56,50,44,96,72,48,29.91,29.79,4,2,8,0.00
2013-6-4,80,63,48,66,47,31,94,61,27,29.99,29.89,12,2,15,1.18
2013-6-5,86,70,57,60,54,49,86,59,37,29.93,29.70,4,1,8,0.00
2013-6-6,74,65,58,66,60,53,99,83,70,29.71,29.62,4,2,8,0.00
2013-6-7,78,66,57,62,58,55,99,78,50,29.73,29.65,4,2,9,0.00
2013-6-8,79,69,57,63,59,56,96,72,55,29.86,29.71,4,1,8,0.00
2013-6-9,79,79,79,63,63,62,58,57,55,29.89,29.71,2,2,4,0.00
2013-6-10,79,70,65,68,64,60,99,84,56,29.71,29.62,5,2,14,0.00
2013-6-11,90,75,62,71,64,59,99,73,37,29.81,28.21,4,1,9,0.00
2013-6-12,95,80,0,75,71,66,94,69,44,29.78,29.54,4,2,12,0.00
2013-6-13,83,73,53,73,64,48,99,76,49,29.80,29.44,8,4,20,1.18
2013-6-14,83,69,54,61,56,-1,97,67,10,29.91,29.76,6,2,12,0.00
2013-6-15,79,55,0,64,60,56,95,62,54,29.95,29.79,2,0,4,0.00
2013-6-16,78,72,67,70,66,10,99,83,10,29.85,29.77,6,2,12,0.00
2013-6-17,91,76,67,74,67,15,99,78,12,29.81,29.71,35,1,17,0.59
2013-6-18,87,72,68,67,63,12,92,73,45,29.83,29.71,4,2,13,0.00
2013-6-19,81,68,60,61,58,55,94,72,42,29.95,29.83,4,2,9,0.00
2013-6-20,91,78,0,62,60,41,79,50,24,30.01,29.96,2,0,9,0.00
2013-6-21,93,75,62,67,62,5,92,68,10,30.04,29.97,3,1,8,0.00
2013-6-27,74,46,0,74,68,62,99,61,97,29.62,29.61,4,2,8,0.00
2013-7-3,85,78,69,69,67,20,96,70,53,29.93,29.61,4,1,18,0.00
2013-7-4,78,69,0,72,68,64,99,96,78,29.98,29.89,3,0,10,0.00
2013-7-5,83,76,66,70,68,66,99,77,60,29.97,29.90,1,0,4,0.00
2013-7-6,83,83,83,68,68,68,60,60,60,29.95,29.88,1,1,2,0.00
2013-7-7,83,83,83,68,68,68,60,60,60,29.94,29.86,1,1,2,0.00
2013-7-8,83,57,0,68,68,68,60,41,60,29.97,29.87,1,0,2,0.00
2013-7-9,0,0,0,68,68,68,0,0,100,29.92,29.81,0,0,0,0.00
2013-7-10,0,0,0,68,68,68,0,0,100,29.78,29.78,0,0,0,0.00
2013-7-11,0,0,0,68,68,68,0,0,100,29.86,29.85,0,0,0,0.00
2013-9-8,82,77,75,70,69,68,84,77,63,29.98,29.93,3,2,5,0.00
2013-9-9,95,86,67,72,70,66,99,61,44,30.03,29.94,3,2,10,0.00
2013-9-10,100,82,73,76,72,67,96,76,36,30.11,30.01,6,1,14,0.00
2013-9-11,98,92,70,74,66,61,98,44,31,30.15,30.02,4,1,9,0.00
2013-9-12,90,89,67,63,63,55,69,43,41,30.02,29.88,4,1,7,0.00
2013-9-13,67,67,67,56,56,56,69,69,69,29.99,29.96,4,4,7,0.00
2013-9-22,0,0,0,56,56,56,0,0,100,29.97,29.95,0,0,0,0.00
2013-10-14,77,58,43,53,45,40,98,67,29,30.32,30.18,4,2,9,5.82
2013-10-15,70,66,53,64,62,52,99,87,77,30.07,29.91,3,2,6,5.82
2013-10-16,64,59,48,63,57,-5,97,92,65,29.97,29.87,4,2,13,5.82
2013-10-17,48,44,43,44,42,42,94,94,86,29.95,29.87,0,0,0,0.00
2013-10-18,68,48,43,47,43,42,94,86,43,30.00,29.91,4,1,9,0.00
2013-10-19,52,45,42,44,41,35,98,85,54,29.95,29.83,4,1,11,0.13
2013-10-20,66,43,39,43,39,37,94,86,41,29.99,29.87,2,1,4,0.00
2013-10-21,66,53,45,49,44,33,95,73,48,29.91,29.81,2,0,10,0.01
2013-10-22,56,43,30,40,30,24,93,65,30,29.96,29.75,2,0,12,0.01
2013-10-23,48,41,34,41,34,-10,99,81,45,29.96,29.69,2,0,11,0.13
2013-10-24,42,38,34,38,34,28,99,86,76,30.19,29.95,0,0,4,0.04
2013-10-25,52,36,27,32,26,17,89,68,26,30.34,30.17,0,0,2,0.00
2013-10-26,54,46,34,40,35,25,79,67,54,30.19,29.85,0,0,2,0.00
2013-10-27,55,42,39,47,35,33,99,77,48,30.02,29.97,8,0,8,0.00
2013-10-28,67,60,30,35,32,28,96,37,27,30.16,30.01,0,0,2,0.00
2013-10-29,57,53,38,46,44,35,92,70,59,30.27,30.11,0,0,1,0.01
2013-10-30,64,56,50,63,55,46,99,96,85,30.11,29.90,0,0,2,0.13
2013-10-31,65,62,56,65,60,56,99,92,81,29.90,29.25,1,0,14,0.93
2013-11-1,64,53,46,57,47,41,99,80,45,29.69,29.35,0,0,6,0.00
2013-11-2,54,48,42,45,40,34,99,77,50,30.02,29.68,1,0,9,0.00
2013-11-3,56,42,34,45,39,34,99,90,48,30.25,30.02,0,0,2,0.00
2013-11-4,56,48,40,43,39,35,85,73,55,30.29,30.19,0,0,49,0.00
2013-11-5,61,52,47,49,45,42,97,77,55,30.31,30.09,0,0,2,0.01
2013-11-6,59,55,42,57,49,41,99,83,61,30.10,29.88,1,0,13,0.37
2013-11-7,50,44,37,42,28,21,99,55,34,30.20,30.01,2,0,12,0.01
2013-11-8,53,37,29,34,30,27,95,77,40,30.96,30.15,0,0,4,0.00
2013-11-9,60,49,40,41,35,27,71,58,44,30.13,29.92,0,0,1,0.00
2013-11-10,50,41,30,38,29,26,90,65,47,30.26,30.05,1,0,5,0.00
2013-11-11,50,37,28,44,33,26,99,88,58,30.22,30.01,3,0,11,0.06
2013-11-12,37,30,24,30,22,17,99,71,49,30.50,30.22,2,0,11,0.00
2013-11-13,41,29,21,20,18,15,88,64,35,30.51,30.29,0,0,1,0.00
2013-11-14,54,46,31,22,18,15,62,34,21,30.25,30.04,1,0,4,0.00
2013-11-15,50,43,36,43,29,22,94,59,43,30.05,29.99,0,0,1,0.00
2013-11-16,59,57,45,58,55,44,99,95,89,29.99,29.76,0,0,4,0.01
2013-11-17,66,60,55,62,56,42,99,86,59,29.76,29.37,2,0,9,0.57
2013-11-18,55,55,55,42,42,42,61,61,61,29.96,29.72,2,2,6,0.57
2013-11-19,43,35,33,29,26,26,73,70,55,30.25,30.21,1,0,2,0.00
2013-11-20,51,39,33,33,28,26,73,66,45,30.23,30.10,0,0,2,0.00
2013-11-21,58,46,0,47,41,32,91,72,64,30.20,30.09,0,0,2,0.11
2013-11-22,52,50,49,51,50,47,99,97,91,30.15,30.07,0,0,2,0.07
2013-11-23,0,0,0,49,49,49,0,0,100,30.47,30.29,0,0,0,0.07
2013-11-24,0,0,0,49,49,49,0,0,100,30.57,30.39,0,0,0,0.07
2013-11-25,0,0,0,49,49,49,0,0,100,30.40,30.23,0,0,0,0.07
2013-11-27,0,0,0,49,49,49,0,0,100,30.11,30.00,0,0,0,0.07
2013-12-19,45,43,40,40,37,34,83,78,72,29.93,29.89,0,0,2,0.39
2013-12-20,59,52,45,58,48,-5,97,85,70,29.89,29.75,1,0,7,0.15
2013-12-21,62,54,44,61,53,44,99,98,97,29.79,29.45,1,0,11,2.06
2013-12-22,61,46,34,60,43,30,99,91,84,30.04,29.42,1,0,11,0.17
2013-12-23,34,28,22,30,20,9,87,72,54,30.35,30.04,3,0,12,0.00
2013-12-24,22,12,0,14,3,-5,72,53,51,30.50,30.35,41,1,41,0.00
2013-12-25,27,21,17,11,9,8,68,60,48,30.41,30.21,1,0,2,0.00
2013-12-27,40,38,36,30,29,26,71,67,65,30.27,30.22,1,0,4,0.00
2013-12-28,53,42,36,33,30,26,73,62,43,30.22,29.96,0,0,2,0.00
2013-12-29,46,37,29,39,31,25,99,79,63,30.02,29.76,2,0,11,0.02
2013-12-30,29,24,21,25,13,7,84,65,46,30.23,30.02,1,0,9,0.00
2013-12-31,32,26,21,18,12,9,64,57,44,30.32,30.12,2,0,5,0.00
2014-1-1,42,34,20,28,22,14,84,63,55,30.23,29.97,0,0,2,0.00
2014-1-2,41,34,16,27,22,7,86,62,57,29.98,29.83,9,1,13,0.00